• In Czech Republic
  • List of Countries
  • For 7 days
  • Water Temperature
  • Satellite Maps
  • Weather Map
  • Weather Widgets
  • user-avatar
    Login

    Hourly Weather Herāt

    Today, 17 February, Saturday

    Time Temperature Precipitation Wind Pressure Humidity
    00:00 +7°C° 0 mm 3 mps 685 mmHg 56%
    01:00 +5°C° 0 mm 3 mps 685 mmHg 57%
    02:00 +5°C° 0 mm 3 mps 685 mmHg 56%
    03:00 +6°C° 0 mm 2 mps 684 mmHg 56%
    04:00 +6°C° 0 mm 2 mps 684 mmHg 56%
    05:00 +6°C° 0 mm 2 mps 684 mmHg 56%
    06:00 +6°C° 0 mm 2 mps 684 mmHg 55%
    07:00 +6°C° 0 mm 2 mps 683 mmHg 55%
    08:00 +8°C° 0 mm 2 mps 684 mmHg 48%
    09:00 +9°C° 0 mm 2 mps 684 mmHg 41%
    10:00 +12°C° 0 mm 1 mps 684 mmHg 34%
    11:00 +14°C° 0 mm 2 mps 684 mmHg 31%
    12:00 +15°C° 0 mm 2 mps 683 mmHg 28%
    13:00 +16°C° 0 mm 2 mps 683 mmHg 26%
    14:00 +16°C° 0 mm 2 mps 682 mmHg 26%
    15:00 +16°C° 0 mm 2 mps 682 mmHg 26%
    16:00 +17°C° 0 mm 2 mps 682 mmHg 27%
    17:00 +16°C° 0 mm 2 mps 682 mmHg 30%
    18:00 +15°C° 0 mm 2 mps 681 mmHg 34%
    19:00 +14°C° 0 mm 2 mps 681 mmHg 37%
    20:00 +14°C° 0 mm 2 mps 681 mmHg 40%
    21:00 +13°C° 0 mm 2 mps 681 mmHg 42%
    22:00 +12°C° 0 mm 1 mps 681 mmHg 44%
    23:00 +12°C° 0 mm 1 mps 681 mmHg 44%

    Tomorrow, 18 February, Sunday

    Time Temperature Precipitation Wind Pressure Humidity
    00:00 +12°C° 0 mm 1 mps 680 mmHg 45%
    01:00 +12°C° 0 mm 1 mps 680 mmHg 45%
    02:00 +12°C° 0 mm 1 mps 680 mmHg 46%
    03:00 +12°C° 0 mm 1 mps 680 mmHg 46%
    04:00 +11°C° 0 mm 1 mps 679 mmHg 47%
    05:00 +11°C° 0 mm 1 mps 679 mmHg 48%
    06:00 +11°C° 0 mm 1 mps 679 mmHg 48%
    07:00 +11°C° 0 mm 1 mps 679 mmHg 49%
    08:00 +13°C° 0 mm 1 mps 680 mmHg 44%
    09:00 +15°C° 0 mm 1 mps 680 mmHg 39%
    10:00 +18°C° 0 mm 1 mps 681 mmHg 34%
    11:00 +19°C° 0 mm 1 mps 680 mmHg 32%
    12:00 +20°C° 0 mm 1 mps 680 mmHg 30%
    13:00 +22°C° 0 mm 1 mps 679 mmHg 27%
    14:00 +22°C° 0 mm 1 mps 679 mmHg 27%
    15:00 +22°C° 0 mm 1 mps 679 mmHg 26%
    16:00 +21°C° 0 mm 2 mps 678 mmHg 26%
    17:00 +20°C° 0 mm 2 mps 678 mmHg 28%
    18:00 +19°C° 0 mm 2 mps 678 mmHg 31%
    19:00 +19°C° 0 mm 2 mps 678 mmHg 33%
    20:00 +18°C° 0 mm 2 mps 678 mmHg 33%
    21:00 +18°C° 0 mm 2 mps 677 mmHg 33%
    22:00 +18°C° 0 mm 2 mps 677 mmHg 33%
    23:00 +17°C° 0 mm 2 mps 677 mmHg 34%

    Day after tomorrow, 19 February, Monday

    Time Temperature Precipitation Wind Pressure Humidity
    00:00 +17°C° 0 mm 3 mps 676 mmHg 34%
    01:00 +17°C° 0 mm 3 mps 676 mmHg 34%
    02:00 +17°C° 0 mm 3 mps 676 mmHg 34%
    03:00 +17°C° 0 mm 3 mps 675 mmHg 33%
    04:00 +17°C° 0 mm 3 mps 675 mmHg 33%
    05:00 +17°C° 0 mm 4 mps 675 mmHg 33%
    06:00 +15°C° 0 mm 4 mps 675 mmHg 32%
    07:00 +15°C° 0 mm 5 mps 675 mmHg 32%
    08:00 +19°C° 0 mm 6 mps 676 mmHg 28%
    09:00 +21°C° 0 mm 8 mps 676 mmHg 25%
    10:00 +23°C° 0 mm 10 mps 677 mmHg 21%
    11:00 +24°C° 0 mm 9 mps 676 mmHg 20%
    12:00 +26°C° 0 mm 9 mps 676 mmHg 19%
    13:00 +27°C° 0 mm 9 mps 676 mmHg 18%
    14:00 +27°C° 0 mm 8 mps 675 mmHg 18%
    15:00 +26°C° 0 mm 8 mps 675 mmHg 18%
    16:00 +26°C° 0 mm 7 mps 675 mmHg 18%
    17:00 +23°C° 0 mm 6 mps 675 mmHg 23%
    18:00 +22°C° 0 mm 5 mps 675 mmHg 27%
    19:00 +20°C° 0 mm 4 mps 675 mmHg 31%
    20:00 +17°C° 0 mm 5 mps 675 mmHg 34%
    21:00 +16°C° 0 mm 5 mps 675 mmHg 37%
    22:00 +15°C° 0 mm 6 mps 675 mmHg 40%
    23:00 +14°C° 0.2 mm 6 mps 675 mmHg 43%

    20 February, Tuesday

    Time Temperature Precipitation Wind Pressure Humidity
    00:00 +13°C° 0.2 mm 5 mps 675 mmHg 47%
    01:00 +12°C° 0.2 mm 4 mps 675 mmHg 50%
    02:00 +12°C° 0.1 mm 4 mps 674 mmHg 53%
    03:00 +11°C° 0.1 mm 4 mps 674 mmHg 56%
    04:00 +11°C° 0.1 mm 4 mps 674 mmHg 59%
    05:00 +11°C° 0.1 mm 4 mps 674 mmHg 60%
    06:00 +11°C° 0.1 mm 4 mps 675 mmHg 60%
    07:00 +11°C° 0.1 mm 4 mps 675 mmHg 61%
    08:00 +11°C° 0 mm 4 mps 676 mmHg 59%
    09:00 +11°C° 0 mm 4 mps 676 mmHg 58%
    10:00 +12°C° 0 mm 4 mps 677 mmHg 57%
    11:00 +12°C° 0 mm 4 mps 677 mmHg 56%
    12:00 +12°C° 0 mm 4 mps 678 mmHg 55%
    13:00 +13°C° 0 mm 5 mps 678 mmHg 54%
    14:00 +12°C° 0 mm 4 mps 678 mmHg 53%
    15:00 +12°C° 0 mm 4 mps 678 mmHg 53%
    16:00 +12°C° 0 mm 3 mps 678 mmHg 53%
    17:00 +12°C° 0 mm 3 mps 679 mmHg 55%
    18:00 +12°C° 0 mm 2 mps 679 mmHg 58%
    19:00 +10°C° 0 mm 2 mps 679 mmHg 60%
    20:00 +10°C° 0 mm 2 mps 679 mmHg 62%
    21:00 +10°C° 0 mm 2 mps 680 mmHg 63%
    22:00 +10°C° 0 mm 1 mps 680 mmHg 64%
    23:00 +10°C° 0 mm 1 mps 680 mmHg 64%

    21 February, Wednesday

    Time Temperature Precipitation Wind Pressure Humidity
    00:00 +10°C° 0 mm 1 mps 679 mmHg 64%
    01:00 +9°C° 0 mm 1 mps 679 mmHg 65%
    02:00 +9°C° 0 mm 1 mps 679 mmHg 64%
    03:00 +9°C° 0 mm 1 mps 679 mmHg 64%
    04:00 +8°C° 0 mm 1 mps 679 mmHg 63%
    05:00 +8°C° 0 mm 1 mps 679 mmHg 61%
    06:00 +8°C° 0 mm 1 mps 679 mmHg 59%
    07:00 +8°C° 0 mm 1 mps 680 mmHg 56%
    08:00 +10°C° 0 mm 1 mps 680 mmHg 50%
    09:00 +12°C° 0 mm 2 mps 680 mmHg 43%
    10:00 +14°C° 0 mm 2 mps 681 mmHg 36%
    11:00 +15°C° 0 mm 2 mps 680 mmHg 33%
    12:00 +16°C° 0 mm 1 mps 680 mmHg 31%
    13:00 +18°C° 0 mm 1 mps 679 mmHg 28%
    14:00 +17°C° 0 mm 2 mps 679 mmHg 27%
    15:00 +17°C° 0 mm 2 mps 679 mmHg 27%
    16:00 +17°C° 0 mm 2 mps 679 mmHg 27%
    17:00 +16°C° 0 mm 2 mps 679 mmHg 31%
    18:00 +16°C° 0 mm 1 mps 679 mmHg 34%
    19:00 +15°C° 0 mm 1 mps 679 mmHg 38%
    20:00 +15°C° 0 mm 1 mps 679 mmHg 40%
    21:00 +14°C° 0 mm 1 mps 679 mmHg 41%
    22:00 +14°C° 0 mm 1 mps 679 mmHg 43%
    23:00 +13°C° 0 mm 1 mps 678 mmHg 42%

    22 February, Thursday

    Time Temperature Precipitation Wind Pressure Humidity
    00:00 +13°C° 0 mm 1 mps 678 mmHg 41%
    01:00 +13°C° 0 mm 1 mps 678 mmHg 40%
    02:00 +12°C° 0 mm 1 mps 677 mmHg 39%
    03:00 +12°C° 0 mm 1 mps 677 mmHg 38%
    04:00 +11°C° 0 mm 1 mps 677 mmHg 37%
    05:00 +11°C° 0 mm 1 mps 677 mmHg 36%
    06:00 +11°C° 0 mm 1 mps 677 mmHg 36%
    07:00 +11°C° 0 mm 1 mps 678 mmHg 36%
    08:00 +13°C° 0 mm 2 mps 678 mmHg 31%
    09:00 +15°C° 0 mm 2 mps 679 mmHg 27%
    10:00 +17°C° 0 mm 2 mps 679 mmHg 23%
    11:00 +18°C° 0 mm 2 mps 679 mmHg 22%
    12:00 +18°C° 0 mm 3 mps 678 mmHg 22%
    13:00 +19°C° 0 mm 3 mps 678 mmHg 22%
    14:00 +19°C° 0 mm 3 mps 678 mmHg 23%
    15:00 +19°C° 0 mm 3 mps 678 mmHg 25%
    16:00 +19°C° 0 mm 3 mps 678 mmHg 26%
    17:00 +18°C° 0 mm 3 mps 678 mmHg 30%
    18:00 +17°C° 0 mm 3 mps 678 mmHg 34%
    19:00 +16°C° 0 mm 2 mps 678 mmHg 39%
    20:00 +15°C° 0 mm 2 mps 678 mmHg 41%
    21:00 +14°C° 0 mm 2 mps 678 mmHg 43%
    22:00 +14°C° 0 mm 2 mps 678 mmHg 45%
    23:00 +13°C° 0 mm 2 mps 678 mmHg 46%
    Show more